Regional Weather Roundup
Issued by NWS Wakefield, VA

Home | Current Version | Previous Version | Text Only | Print | Product List | Glossary On
Versions: 1 2 3 4 5 6 7 8 9 10 11 12 13 14 15 16 17 18 19 20 21 22 23 24 25 26 27 28 29 30 31 32 33 34 35 36 37 38 39 40 41 42 43 44 45 46 47 48 49 50
000
ASUS41 KAKQ 191510
RWRAKQ

REGIONAL WEATHER ROUNDUP
NATIONAL WEATHER SERVICE WAKEFIELD VA
1000 AM EST FRI DEC 19 2014

Note: "fair" indicates few or no clouds below 12,000 feet with no
significant weather and/or obstructions to visibility. * = Denotes
station may not report precipitation (e.g., rain,snow,etc.),
thunder or fog.

VAZ042-051-052>054-056-191600-
NORTHERN VIRGINIA

CITY           SKY/WX    TMP DP  RH WIND       PRES   REMARKS
WASH NATIONAL  CLOUDY    39  22  50 NW13      30.19R
DULLES         CLOUDY    35  22  58 NW13      30.18R
FORT BELVOIR   CLOUDY    37  22  56 NW14      30.19R
QUANTICO       PTSUNNY   37  22  54 N8G20     30.21R
FREDERICKSBRG* SUNNY     39  25  57 NW8G18    30.19R
STAFFORD*      SUNNY     37  22  54 N17G23    30.24R
WARRENTON      CLOUDY    39  29  66 NW7       30.18R
CULPEPER*      MOSUNNY   37  25  60 N6        30.19R
MANASSAS*      NOT AVBL
LEESBURG*      CLOUDY    36  28  75 NW13G22   30.18S
WINCHESTER     CLOUDY    34  21  60 NW16G24   30.17R WCI  23
FRONT ROYAL*   CLOUDY    32  23  69 NW5       30.18R
LURAY*         CLOUDY    36  28  75 SE3       30.18R
$$

VAZ048-049-060>072-079>083-191600-
CENTRAL AND SOUTH CENTRAL VIRGINIA

CITY           SKY/WX    TMP DP  RH WIND       PRES   REMARKS
RICHMOND       SUNNY     40  23  50 N9        30.20R
CHESTERFIELD*  SUNNY     37  18  44 N8        30.21R
PETERSBURG*    SUNNY     38  26  61 N5        30.20S
HANOVER        SUNNY     38  23  55 VRB3      30.21R
TAPPAHANNOCK*  SUNNY     39  21  48 NW8       30.19S
QUINTON*       SUNNY     37  25  62 N7        30.19R
CHARLOTTSVILLE SUNNY     36  25  64 SW3       30.17R
GORDONSVILLE*  SUNNY     35  23  62 CALM      30.18R
ORANGE*        SUNNY     36  27  69 CALM      30.20R
LOUISA*        SUNNY     37  25  60 NE5       30.17R
BUMPASS*       SUNNY     36  24  61 N5        30.19R
FARMVILLE*     SUNNY     40  32  73 S3        30.18R
CREWE*         SUNNY     37  24  61 CALM      30.18S
FORT PICKETT*  SUNNY     36  24  62 NE3       30.19R
CHASE CITY*    SUNNY     39  29  65 CALM      30.18R
CLARKSVILLE*   SUNNY     37  28  70 CALM      30.18S
SOUTH HILL*    SUNNY     36  25  65 NE3       30.24S
LAWRENCEVILLE* SUNNY     37  26  62 NE3       30.20R
EMPORIA*       SUNNY     36  27  69 CALM      30.23R
$$

VAZ088>098-191600-
SOUTHEAST VIRGINIA

CITY           SKY/WX    TMP DP  RH WIND       PRES   REMARKS
NORFOLK        SUNNY     40  27  59 VRB5      30.18R
VIRGINIA BEACH MOSUNNY   42  29  59 NW12      30.17R
NORFOLK NAVAL  SUNNY     43  25  49 N12       30.20R
WEST POINT*    SUNNY     41  24  52 N6        30.21R
SALUDA*        FAIR      38  25  60 N12       30.18R
NEWPORT NEWS   SUNNY     42  26  53 N10       30.19R
LANGLEY AFB    CLOUDY    37  28  70 N6        30.11S
FORT EUSTIS    SUNNY     40  26  58 VRB7      30.18R
WILLIAMSBURG*  SUNNY     43  28  56 N10       30.20R
HR EXEC AP*    SUNNY     39  28  65 N8        30.21R
FRANKLIN*      SUNNY     39  27  60 N6        30.20S
WAKEFIELD      SUNNY     38  25  59 N7        30.20R
$$

VAZ020-022-025-037-045-191600-
WEST CENTRAL AND SOUTHWEST VIRGINIA

CITY           SKY/WX    TMP DP  RH WIND       PRES   REMARKS
STAUNTON*      SUNNY     33  24  68 CALM      30.18R
WAYNESBORO*    SUNNY     32  23  68 N7        30.15R
HOT SPRINGS VA SUNNY     24  22  94 W15       30.02R WCI  11
LYNCHBURG      SUNNY     36  23  59 SW6       30.18R
DANVILLE       SUNNY     43  23  45 N7        30.19R
SOUTH BOSTON*  SUNNY     39  23  52 NW9       30.18F
MARTINSVILLE   SUNNY     43  22  43 NW12      30.20S
ROANOKE        SUNNY     38  22  52 W12G18    30.20R
BLACKSBURG     SUNNY     31  22  68 W9        30.20S
DUBLIN*        SUNNY     35  25  67 W3        30.19R
MARION*        SUNNY     35  19  51 W7        30.17S
HILLSVILLE*    SUNNY     33  18  53 NW12      30.13S WCI  24
RICHLANDS*     SUNNY     30  22  70 NW3       30.17R
WISE*          CLOUDY    32  27  80 N5        30.17S
ABINGDON*      CLOUDY    37  23  57 NW5       30.18S
$$

MDZ021>025-VAZ099-100-191600-
SOUTHERN MARYLAND AND THE DELMARVA PENINSULA

CITY           SKY/WX    TMP DP  RH WIND       PRES   REMARKS
PATUXENT RIVER PTSUNNY   37  23  56 NW14      30.18R
BAY BRIDGE APT   N/A     36  27  69 NW9       30.17R
LEONARDTOWN    CLOUDY    36  23  60 NW5       30.19R
DOVER          CLOUDY    37  26  62 W14G22    30.10R
GEORGETOWN     CLOUDY    38  25  59 NW9G20    30.14R
EASTON         CLOUDY    37  28  70 NW12      30.19R
CAMBRIDGE      CLOUDY    37  27  65 NW9       30.15S
SALISBURY      CLOUDY    40  25  55 NW13G23   30.15R
OCEAN CITY     CLOUDY    38  26  62 NW12      30.14R
WALLOPS ISLAND MOSUNNY   39  26  59 NW10      30.16R
ACCOMACK*      SUNNY     37  27  65 NW15G24   30.16R
$$

NCZ012>017-030>032-191600-
NORTH CENTRAL AND EASTERN NORTH CAROLINA

CITY           SKY/WX    TMP DP  RH WIND       PRES   REMARKS
ROANOKE RAPIDS SUNNY     37  28  70 NE8       30.19S
RALEIGH        MOSUNNY   44  22  41 N5        30.20R
ELIZABETH CITY SUNNY     44  30  57 N9        30.19R
AHOSKIE*       SUNNY     37  27  66 N7        30.19F
EDENTON*         N/A     40  31  70 N10       30.18S
CURRITUCK*     SUNNY     40  29  64 N9        30.19R
KILL DEVIL HLS SUNNY     44  35  70 NW8       30.16R
MANTEO         SUNNY     44  34  67 N8        30.17R
CAPE HATTERAS  SUNNY     47  36  65 VRB5      30.15R
TARBORO*       NOT AVBL
GOLDSBORO      SUNNY     45  31  57 N12       30.18R
WASHINGTON     SUNNY     41  33  74 CALM      30.19R
GREENVILLE     SUNNY     39  34  81 N3        30.21R
NEW BERN       SUNNY     47  31  53 N5        30.19R
WILMINGTON     SUNNY     50  32  50 CALM      30.18R
$$

VAZ048-191600-
ELSEWHERE

CITY           SKY/WX    TMP DP  RH WIND       PRES   REMARKS
HARRISBURG PA  CLOUDY    36  25  64 NW10      30.12R
BALTIMORE      CLOUDY    36  23  59 W10       30.15R
ANNAPOLIS      CLOUDY    37  25  61 NW10      30.16R
ANDREWS AFB    NOT AVBL
PHILADELPHIA   CLOUDY    38  24  57 NW9G18    30.11R
HENDERSON NC   SUNNY     39  26  58 NW7       30.19S
GREENSBORO     MOSUNNY   45  21  38 N5        30.17R
ROCKY MOUNT    SUNNY     41  28  60 N5        30.20R
$$

VAZ100-191600-
MARINE

STATION/POSITION TIME  TEMP    WIND        PRES    WAVE   SWELL
                       AIR SEA DIR/SP/G            HT/PER HT/PER
                 (UTC) (F)     (DEG/KT/KT) (MB)    (FT/S) (FT/S)
CAPE MAY NJ      1500   37 41  310/ 17/ 22 1019.1R
LEWES DE         1500   37 42  300/ 18/ 23 1019.8R
15NM E FENWICK I 1500   38 47              1019.2R   4/ 5
OCEAN-CITY-INLET 1500   37 45  340/ 12/ 14 1019.9R
WACHAPREAGUE VA  1500   40 43  320/  5/ 12 1021.1R
THOMAS POINT MD  1500   36 41  320/ 12/ 14 1022.6R
GOOSES REEF MD   1500   37     VRB 14/ 16  1020.9R   1/ 2
COVE POINT MD    1500   35     330/ 12/ 17 1021.6R
SOLOMONS ISLAND  1500      44                N/A
BISHOPS HEAD MD  1500   36 38  320/  7/ 13 1021.1R
PINEY POINT MD   1500          350/ 15/ 18   N/A
POTOMAC MD       1500   38 44  340/ 14/ 19 1021.2R   1/ 3
CAMBRIDGE MD     1500   37 41  310/ 13/ 15 1021.1R
LEWISETTA VA     1500   37 42  340/ 11/ 14 1021.9S
RAPPAHANNOCK LGT 1500          330/ 20/ 24 1021.9R
STINGRAY PT      1500   38 44  350/ 12/ 16 1022.3R   2/ 3
YORK RVR RNG VA  1500   37     350/ 12/ 14 1021.4R
YORKTOWN VA      1500   38 45  330/  9/ 11 1022.1R
JAMESTOWN VA     1500   38 46   10/  8/ 12   N/A     0
DOMINION TERM VA 1500   40      90/  1/  3 1022.3R
KIPTOPEKE VA     1500      49  350/ 15/ 22   N/A
CHES BAY BRIDGE  1500   39 46  320/ 12/ 15 1021.7R
CAPE HENRY VA    1500   39     330/ 15/ 19 1020.7R
CHESAPEAKE LGHT  1400   39     340/ 17/ 19 1021.2R
WILLOUBY STN VA  1500   38     350/ 13/ 15 1022.5R
S CRANEY ISL VA  1500          350/  8/ 11 1022.2S
CAPE HENRY BUOY  1500      48                N/A     3/ 3
1ST LANDING BUOY 1500   40 46  340/ 14/ 17 1021.6R   2/ 3
CAPE CHARLES BUO 1500      48                N/A     2/ 3   2/10
64NM E OF VA BCH 1500   43 55  320/ 16/ 19 1020.2R   3/ 4   2/11
DUCK PIER NC     1500   41 47  350/ 11/ 13 1020.7R
44100 DUCK FRF   1500      51                N/A     3/ 5
44056 DUCK FRF   1500      47                N/A     2/ 6
OREGON INLET NC  1500   45 50  350/  9/ 12 1021.1R
HATTERAS NC      1500   46 53  340/  9/ 12 1021.4R
DIAMOND SHLS NC  1400   48                 1020.5R   2/ 8
CAPE LOOKOUT NC  1400   47     330/  9/ 10 1020.5R
$$


USA.gov is the U.S. government's official web portal to all federal, state and local government web resources and services.